Weather reports worldwide

Advertisment
Eskdalemuir, United Kingdom (3162): temperature & dewpoint: 11.01.2021 22:00:00 - 17.01.2021 22:00:00 (GMT)Eskdalemuir, United Kingdom (3162): temperature -20cm & temperature -100cm: 11.01.2021 22:00:00 - 17.01.2021 22:00:00 (GMT)Eskdalemuir, United Kingdom (3162): wind speed & gusts: 11.01.2021 22:00:00 - 17.01.2021 22:00:00 (GMT)Eskdalemuir, United Kingdom (3162): wind direction: 11.01.2021 22:00:00 - 17.01.2021 22:00:00 (GMT)Eskdalemuir, United Kingdom (3162): reduced air pressure: 11.01.2021 22:00:00 - 17.01.2021 22:00:00 (GMT)Eskdalemuir, United Kingdom (3162): visibility: 11.01.2021 22:00:00 - 17.01.2021 22:00:00 (GMT)Eskdalemuir, United Kingdom (3162): sunshine duration: 11.01.2021 22:00:00 - 17.01.2021 22:00:00 (GMT)Eskdalemuir, United Kingdom (3162): precipitation: 11.01.2021 22:00:00 - 17.01.2021 22:00:00 (GMT)
Date & Time tt [°C] td [°C] tt -20cm [°C] tt -100cm [°C] ff [km/h] ff [kn] fx [km/h] fx [kn] dd ppp [hPa] vv [km] sd [min] rr [mm]
17.01.2021 22:00:00 - - - - - - - - - - - - -
17.01.2021 21:00:00 4,5 3,9 - - 18 10 - - SSW 1019,4 8 0 0,4
17.01.2021 20:00:00 4,4 3,8 - - 22 12 - - SSW 1019,8 8 0 0,4
17.01.2021 19:00:00 4,3 3,7 - - 21 11 - - SSW 1019,9 13 0 0,0
17.01.2021 18:00:00 4,0 3,6 - - 16 9 - - SSW 1020,2 11 0 0,2
17.01.2021 17:00:00 4,1 3,6 - - 18 10 - - SSW 1020,7 11 0 0,0
17.01.2021 16:00:00 3,9 3,6 - - 9 5 - - S 1020,9 7 0 0,2
17.01.2021 15:00:00 3,9 3,4 - - 13 7 - - SSW 1021,1 17 0 0,0
17.01.2021 14:00:00 3,4 2,6 - - 9 5 - - SSW 1021,3 25 6 0,2
17.01.2021 13:00:00 3,4 2,6 - - 13 7 - - SW 1021,7 7 0 0,2
17.01.2021 12:00:00 3,1 2,0 - - 11 6 - - SW 1021,9 18 0 0,0
17.01.2021 11:00:00 2,6 1,8 - - 9 5 - - SW 1022,1 21 0 0,0
17.01.2021 10:00:00 1,4 1,0 - - 8 4 - - SSW 1021,5 20 0 0,2
17.01.2021 09:00:00 1,5 1,0 3,7 5,7 8 4 - - SSE 1020,9 11 0 0,0
17.01.2021 08:00:00 2,0 0,9 - - 13 7 - - W 1019,8 22 0 0,0
17.01.2021 07:00:00 2,4 1,8 - - 13 7 - - W 1018,9 25 0 0,0
17.01.2021 06:00:00 1,7 1,1 - - 5 3 - - SW 1018,3 30 0 0,0
17.01.2021 05:00:00 2,2 1,2 - - 5 3 - - W 1017,9 13 0 0,0
17.01.2021 04:00:00 2,3 1,4 - - 8 4 - - W 1017,0 22 0 0,0
17.01.2021 03:00:00 2,1 1,0 - - 13 7 - - W 1016,6 28 0 0,0
17.01.2021 02:00:00 2,0 1,0 - - 8 4 - - W 1016,0 35 0 0,0
17.01.2021 01:00:00 2,7 1,4 - - 11 6 - - WSW 1015,2 45 0 0,0
17.01.2021 00:00:00 2,1 1,6 - - 2 1 - - SSW 1014,9 9 - 0,6
16.01.2021 23:00:00 2,6 1,6 - - 5 3 - - SSW 1014,2 6 0 0,6
16.01.2021 22:00:00 2,3 1,5 - - 5 3 - - SE 1013,9 14 0 0,2
16.01.2021 21:00:00 2,8 1,6 - - 5 3 - - SSE 1013,5 7 0 0,2
16.01.2021 20:00:00 2,4 0,9 - - 9 5 - - SSE 1012,7 13 0 0,0
16.01.2021 19:00:00 3,5 1,1 - - 11 6 - - SW 1012,4 14 0 0,0
16.01.2021 18:00:00 3,5 1,5 - - 11 6 - - W 1012,1 12 0 0,0
16.01.2021 17:00:00 4,7 2,9 - - 26 14 46 25 W 1011,3 20 0 0,0
16.01.2021 16:00:00 5,1 2,9 - - 34 18 59 32 W 1010,3 20 0 0,0
16.01.2021 15:00:00 5,3 3,9 - - 31 17 55 30 W 1009,5 4,1 0 0,4
16.01.2021 14:00:00 5,9 4,1 - - 35 19 55 30 W 1008,5 30 18 0,0
16.01.2021 13:00:00 5,9 4,5 - - 31 17 57 31 W 1008,0 13 18 1,0
16.01.2021 12:00:00 5,8 4,6 - - 35 19 54 29 WSW 1007,8 8 6 1,8
16.01.2021 11:00:00 4,6 4,0 - - 29 16 50 27 SW 1007,7 4,2 0 6,0
16.01.2021 10:00:00 3,6 3,5 - - 24 13 - - SSW 1008,2 7 0 0,0
16.01.2021 09:00:00 1,3 1,3 3,7 5,7 5 3 - - S 1008,6 0,5 0 0,0
16.01.2021 08:00:00 0,9 0,8 - - 4 2 - - NNE 1008,6 6 0 0,0
16.01.2021 07:00:00 0,5 0,3 - - 8 4 - - SSE 1008,8 0,5 0 0,0
16.01.2021 06:00:00 0,8 0,6 - - 8 4 - - SSW 1009,3 1,2 0 0,0
16.01.2021 05:00:00 0,7 0,4 - - 11 6 - - S 1010,8 4,7 0 0,0
16.01.2021 04:00:00 0,4 0,1 - - 15 8 - - SSE 1012,4 3,8 0 0,0
16.01.2021 03:00:00 0,4 -0,1 - - 21 11 - - SSE 1014,0 4,0 0 0,0
16.01.2021 02:00:00 0,0 -0,6 - - 0 0 - - N 1015,7 4,9 0 0,0
16.01.2021 01:00:00 -0,4 -0,9 - - 0 0 - - N 1017,7 4,6 0 0,0
16.01.2021 00:00:00 -0,9 -1,5 - - 0 0 - - N 1019,7 3,8 - 0,0
15.01.2021 23:00:00 -1,0 -1,9 - - 0 0 - - N 1021,2 7 0 0,0
15.01.2021 22:00:00 -1,1 -2,2 - - 0 0 - - N 1022,5 12 0 0,0
15.01.2021 21:00:00 -1,6 -1,9 - - 0 0 - - N 1023,8 15 0 0,0
15.01.2021 20:00:00 -2,1 -2,4 - - 0 0 - - N 1025,0 6 0 0,0
15.01.2021 19:00:00 -1,9 -2,2 - - 0 0 - - N 1025,7 13 0 0,0
15.01.2021 18:00:00 -1,6 -1,9 - - 0 0 - - N 1026,3 5 0 0,0
15.01.2021 17:00:00 -1,2 -1,4 - - 0 0 - - N 1026,9 5 0 0,0
15.01.2021 16:00:00 -0,5 -0,8 - - 9 5 - - SSE 1027,1 7 0 0,0
15.01.2021 15:00:00 0,2 -0,3 - - 8 4 - - S 1027,6 6 0 0,0
15.01.2021 14:00:00 0,5 -0,2 - - 13 7 - - S 1028,4 10 0 0,0
15.01.2021 13:00:00 0,4 -0,2 - - 11 6 - - S 1029,3 8 0 0,0
15.01.2021 12:00:00 0,3 0,1 - - 9 5 - - S 1029,8 4,2 0 0,0
15.01.2021 11:00:00 0,1 0,0 - - 5 3 - - SSE 1030,1 5 0 0,0
15.01.2021 10:00:00 0,0 -0,1 - - 0 0 - - N 1030,2 6 0 0,0
15.01.2021 09:00:00 -0,3 -0,4 3,7 5,7 0 0 - - N 1030,0 12 0 0,0
15.01.2021 08:00:00 -0,5 -0,6 - - 0 0 - - N 1029,7 19 0 0,0
15.01.2021 07:00:00 -1,2 -1,3 - - 0 0 - - N 1029,4 30 0 0,0
15.01.2021 06:00:00 -1,6 -1,8 - - 0 0 - - N 1029,2 30 0 0,0
15.01.2021 05:00:00 -2,4 -2,6 - - 0 0 - - N 1029,3 14 0 0,0
15.01.2021 04:00:00 -2,7 -2,9 - - 0 0 - - N 1029,2 2,2 0 0,0
15.01.2021 03:00:00 -3,3 -3,6 - - 0 0 - - N 1029,2 50 0 0,0
15.01.2021 02:00:00 -3,2 -3,5 - - 0 0 - - N 1028,8 50 0 0,0
15.01.2021 01:00:00 -2,5 -2,8 - - 0 0 - - N 1028,3 45 0 0,0
15.01.2021 00:00:00 -2,0 -2,3 - - 0 0 - - N 1028,1 50 - 0,0
14.01.2021 23:00:00 -1,5 -1,7 - - 0 0 - - N 1027,7 50 0 0,0
14.01.2021 22:00:00 -0,8 -1,0 - - 0 0 - - N 1027,2 50 0 0,0
14.01.2021 21:00:00 -0,4 -0,6 - - 2 1 - - WNW 1026,8 15 0 0,0
14.01.2021 20:00:00 0,0 -0,2 - - 5 3 - - WNW 1026,0 50 0 0,0
14.01.2021 19:00:00 0,3 0,1 - - 5 3 - - NNE 1025,6 45 0 0,2
14.01.2021 18:00:00 0,4 0,1 - - 4 2 - - NW 1025,0 45 0 0,0
14.01.2021 17:00:00 0,9 0,4 - - 2 1 - - SE 1024,4 45 0 0,2
14.01.2021 16:00:00 0,9 0,5 - - 5 3 - - ENE 1023,3 19 0 0,8
14.01.2021 15:00:00 0,7 0,4 - - 5 3 - - NNE 1022,3 2,7 0 0,8
14.01.2021 14:00:00 0,6 0,3 - - 5 3 - - N 1021,4 2,1 0 1,0
14.01.2021 13:00:00 0,7 0,5 - - 5 3 - - NE 1020,7 4,6 0 1,2
14.01.2021 12:00:00 0,7 0,5 - - 8 4 - - NNE 1020,1 3,3 0 0,8
14.01.2021 11:00:00 0,5 0,2 - - 8 4 - - N 1019,5 1,4 0 0,6
14.01.2021 10:00:00 0,5 0,3 - - 9 5 - - NNE 1018,6 2,9 0 0,6
14.01.2021 09:00:00 0,5 0,3 3,7 5,7 9 5 - - NNE 1017,5 2,2 0 0,8
14.01.2021 08:00:00 0,4 0,2 - - 8 4 - - NNE 1016,6 4,1 0 0,6
14.01.2021 07:00:00 0,4 0,2 - - 8 4 - - N 1016,0 3,3 0 0,8
14.01.2021 06:00:00 0,4 0,1 - - 8 4 - - N 1015,5 2,9 0 0,6
14.01.2021 05:00:00 0,8 0,4 - - 9 5 - - N 1014,8 3,4 0 0,8
14.01.2021 04:00:00 1,1 0,7 - - 11 6 - - N 1014,9 9 0 1,0
14.01.2021 03:00:00 1,2 0,8 - - 13 7 - - N 1015,0 5 0 1,0
14.01.2021 02:00:00 1,1 0,7 - - 11 6 - - N 1015,1 4,7 0 0,8
14.01.2021 01:00:00 0,9 0,7 - - 11 6 - - N 1015,5 6 0 1,0
14.01.2021 00:00:00 0,8 0,6 - - 9 5 - - N 1016,0 4,7 - 0,6
13.01.2021 23:00:00 0,8 0,5 - - 9 5 - - N 1016,3 3,5 0 1,0
13.01.2021 22:00:00 0,8 0,5 - - 8 4 - - N 1016,4 2,6 0 0,8
13.01.2021 21:00:00 0,9 0,6 - - 8 4 - - NNE 1016,6 3,8 0 1,2
13.01.2021 20:00:00 0,8 0,6 - - 9 5 - - N 1016,5 5 0 1,2
13.01.2021 19:00:00 0,6 0,4 - - 8 4 - - NNW 1016,8 3,3 0 1,8
13.01.2021 18:00:00 0,6 0,3 - - 5 3 - - NNW 1017,1 3,7 0 1,0
13.01.2021 17:00:00 0,7 0,3 - - 5 3 - - NNW 1017,0 2,6 0 0,6
13.01.2021 16:00:00 0,8 0,3 - - 5 3 - - N 1016,8 11 0 0,4
13.01.2021 15:00:00 1,2 0,7 - - 5 3 - - N 1016,8 14 0 0,2
13.01.2021 14:00:00 1,2 0,9 - - 2 1 - - NW 1017,2 14 0 1,4
13.01.2021 13:00:00 0,5 0,3 - - 4 2 - - N 1017,6 9 0 0,0
13.01.2021 12:00:00 0,1 -0,1 - - 0 0 - - N 1017,9 10 0 0,0
13.01.2021 11:00:00 -0,3 -0,5 - - 0 0 - - N 1018,1 16 0 0,0
13.01.2021 10:00:00 -0,7 -1,0 - - 2 1 - - SSW 1017,8 16 0 0,0
13.01.2021 09:00:00 -1,1 -1,4 4,0 5,9 4 2 - - N 1017,8 18 0 0,0
13.01.2021 08:00:00 -1,7 -2,0 - - 2 1 - - ENE 1017,9 50 0 0,0
13.01.2021 07:00:00 -2,0 -2,3 - - 2 1 - - W 1017,8 50 0 0,0
13.01.2021 06:00:00 -2,6 -3,0 - - 4 2 - - WSW 1018,1 45 0 0,0
13.01.2021 05:00:00 -3,3 -3,7 - - 2 1 - - N 1018,5 35 0 0,0
13.01.2021 04:00:00 -3,6 -4,1 - - 0 0 - - N 1018,8 26 0 0,0
13.01.2021 03:00:00 -3,6 -4,0 - - 2 1 - - NNE 1019,0 40 0 0,0
13.01.2021 02:00:00 -3,9 -4,3 - - 2 1 - - NNW 1019,3 50 0 0,0
13.01.2021 01:00:00 -4,0 -4,4 - - 4 2 - - WSW 1019,7 50 0 0,0
13.01.2021 00:00:00 -4,4 -5,0 - - 2 1 - - N 1020,3 35 - 0,0
12.01.2021 23:00:00 -4,5 -5,0 - - 0 0 - - N 1020,4 30 0 0,0
12.01.2021 22:00:00 -4,3 -4,8 - - 2 1 - - NW 1020,0 50 0 0,0
12.01.2021 21:00:00 -4,3 -4,8 - - 2 1 - - NW 1020,0 50 0 0,0
12.01.2021 20:00:00 -4,2 -4,9 - - 4 2 - - NNW 1019,7 45 0 0,0
12.01.2021 19:00:00 -3,6 -4,1 - - 2 1 - - S 1019,5 40 0 0,0
12.01.2021 18:00:00 -2,8 -3,4 - - 2 1 - - SSE 1019,3 40 0 0,0
12.01.2021 17:00:00 -2,3 -3,6 - - 4 2 - - NNW 1018,8 45 0 0,0
12.01.2021 16:00:00 -0,8 -2,8 - - 5 3 - - WNW 1018,2 45 0 0,0
12.01.2021 15:00:00 1,4 -1,9 - - 5 3 - - SSW 1017,7 50 60 0,0
12.01.2021 14:00:00 2,7 -2,6 - - 11 6 - - NNW 1016,9 35 60 0,0
12.01.2021 13:00:00 2,7 -1,4 - - 15 8 - - N 1016,5 45 60 0,0
12.01.2021 12:00:00 2,6 -1,7 - - 9 5 - - N 1016,4 35 60 0,0
12.01.2021 11:00:00 1,5 -2,0 - - 15 8 - - NNW 1015,8 45 60 0,0
12.01.2021 10:00:00 0,0 -3,0 - - 13 7 - - NW 1015,1 40 48 0,0
12.01.2021 09:00:00 -0,2 -3,7 3,9 5,9 4 2 - - W 1014,4 50 0 0,0
12.01.2021 08:00:00 -1,6 -3,6 - - 5 3 - - WNW 1013,4 50 0 0,0
12.01.2021 07:00:00 -2,1 -4,0 - - 11 6 - - WNW 1012,7 50 0 0,0
12.01.2021 06:00:00 -2,0 -3,7 - - 8 4 - - W 1012,1 50 0 0,0
12.01.2021 05:00:00 -1,3 -2,8 - - 15 8 - - NW 1011,3 50 0 0,0
12.01.2021 04:00:00 -0,8 -2,0 - - 13 7 - - NNW 1010,3 50 0 0,0
12.01.2021 03:00:00 -0,7 -1,6 - - 11 6 - - NNW 1009,5 50 0 0,0
12.01.2021 02:00:00 0,0 -0,7 - - 11 6 - - N 1008,9 50 0 0,0
12.01.2021 01:00:00 0,7 0,1 - - 13 7 - - N 1008,0 50 0 0,2
12.01.2021 00:00:00 1,0 0,4 - - 13 7 - - N 1007,4 21 - 0,0
11.01.2021 23:00:00 1,0 0,4 - - 15 8 - - N 1006,8 9 0 1,4
11.01.2021 22:00:00 5,4 3,9 - - 15 8 - - NW 1004,8 16 0 0,4

tt = temperature
td = dewpoint
tt -20cm = temperature -20cm
tt -100cm = temperature -100cm
ff = wind speed
fx = gusts
dd = wind direction
ppp = reduced air pressure
vv = visibility
sd = sunshine duration
rr = precipitation

Next stations